Probability
1 4 7 7 5 4 2 1 0 0 0 0 0 0 0 0 0 0 0 0 0 0 0 0 0 0 0 0 0 0 0 0 0 0 0 0 0 0 0 0 0 0 0
2 4 8 8 6 4 2 1 0 0 0 0 0 0 0 0 0 0 0 0 0 0 0 0 0 0 0 0 0 0 0 0 0 0 0 0 0 0 0 0 0 0 0
3 5 8 8 6 4 2 1 0 0 0 0 0 0 0 0 0 0 0 0 0 0 0 0 0 0 0 0 0 0 0 0 0 0 0 0 0 0 0 0 0 0 0
5 6 7 7 6 4 3 1 0 0 0 0 0 0 0 0 0 0 0 0 0 0 0 0 0 0 0 0 0 0 0 0 0 0 0 0 0 0 0 0 0 0 0
6 6 6 7 7 5 3 2 1 0 0 0 0 0 0 0 0 0 0 0 0 0 0 0 0 0 0 0 0 0 0 0 0 0 0 0 0 0 0 0 0 0 0
6 6 6 7 8 6 4 2 1 0 0 0 0 0 0 0 0 0 0 0 0 0 0 0 1 1 1 0 0 0 0 0 0 0 0 0 0 0 0 0 0 0 0
7 7 7 7 8 7 4 3 1 1 0 0 0 0 0 0 0 0 0 0 0 0 0 0 1 1 1 0 0 0 0 0 0 0 0 0 0 0 0 0 0 0 0
8 8 7 7 7 6 4 3 3 2 1 0 0 0 1 0 0 0 0 0 0 0 0 1 2 2 1 0 0 0 0 0 0 0 0 0 0 0 0 0 0 0 0
9 9 8 7 6 6 4 3 3 2 1 0 0 0 0 0 0 0 0 0 0 0 0 1 2 2 2 1 1 0 0 0 0 0 0 0 0 0 0 0 0 0 0
8 9 8 7 6 5 3 2 1 1 0 0 0 0 0 0 0 0 0 0 0 0 0 1 2 2 2 2 1 0 0 0 0 0 0 0 0 0 0 0 0 0 0
7 8 8 7 5 2 1 1 0 0 0 0 0 0 0 0 0 0 0 0 0 0 0 0 1 1 1 1 1 0 0 0 0 0 0 0 0 0 0 0 0 0 0
5 6 7 5 3 1 0 0 0 0 0 0 0 0 0 0 0 0 0 0 0 0 0 0 0 0 0 0 0 0 0 0 0 0 0 0 0 0 0 0 0 0 0
4 5 6 4 1 0 0 0 0 0 0 0 0 0 0 0 0 0 0 0 0 0 0 0 0 0 0 0 0 0 0 0 0 0 0 0 0 0 1 1 0 0 0
3 4 5 3 1 0 0 0 0 0 0 0 0 0 0 0 0 0 0 0 0 0 0 0 0 0 0 0 0 0 0 0 0 0 0 0 0 0 1 2 1 1 1
1 2 3 2 0 0 0 0 0 0 0 0 0 0 0 0 0 0 0 0 0 0 0 0 0 0 0 0 0 0 0 0 0 0 0 0 0 0 1 2 2 2 2
0 1 1 0 0 0 0 0 0 0 0 0 0 0 0 0 0 0 0 0 0 0 0 0 0 0 0 0 0 0 0 0 0 0 0 0 0 0 1 1 1 1 1
1 1 1 0 0 0 0 0 0 0 0 0 0 0 0 0 0 0 0 0 0 0 0 0 0 0 0 0 0 0 0 0 0 0 0 0 0 0 0 0 0 0 0
0 1 1 0 0 0 0 0 0 0 0 0 0 0 0 0 0 0 0 0 0 0 0 0 0 0 0 0 0 0 0 0 0 0 0 0 0 0 0 0 0 0 0
0 0 0 0 0 0 0 0 0 0 0 0 0 0 0 0 0 0 0 0 0 0 0 0 0 0 0 0 0 0 0 0 0 0 0 0 0 0 0 0 0 0 0
0 0 0 0 0 0 0 0 0 0 0 0 0 0 0 0 0 0 0 0 0 0 0 0 0 0 0 0 0 0 0 0 0 0 0 0 0 0 0 0 0 0 0
0 0 0 0 0 0 0 0 0 0 0 0 0 0 0 0 0 0 0 0 0 0 0 0 0 0 0 0 0 0 0 0 0 0 0 0 0 0 0 0 0 0 0
0 0 0 0 0 0 0 0 0 0 0 0 0 0 0 0 0 0 0 0 0 0 0 0 0 0 0 0 0 0 0 0 0 0 0 0 0 0 0 0 0 0 0
0 0 0 0 0 0 0 0 0 0 0 0 0 0 0 0 0 0 0 0 0 0 0 0 0 0 0 0 0 0 0 0 0 0 0 0 0 0 0 0 0 0 0
0 0 0 0 0 0 0 0 0 0 0 0 0 0 0 0 0 0 0 0 0 0 0 0 0 0 0 0 0 0 0 0 0 0 0 0 0 0 0 0 0 0 0
0 0 0 0 0 0 0 0 0 0 0 0 0 0 0 0 0 0 0 0 0 0 0 0 0 0 0 0 0 0 0 0 0 0 0 0 0 0 0 0 0 0 0
0 0 0 0 0 0 0 0 0 0 0 0 0 0 0 0 0 0 0 0 0 0 0 0 0 0 0 0 0 0 0 0 0 0 0 0 0 0 0 0 0 0 0
Wind_Speed
2 2 5 7 8 8 9 9 9 9 9 10 10 10 11 11 10 10 10 10 10 10 11 11 12 12 12 12 12 12 12 12 12 12 12 11 11 12 12 12 10 7 11
4 4 6 7 8 9 9 9 8 9 9 9 9 10 10 10 10 10 10 9 10 10 11 11 11 11 11 12 12 12 12 12 12 11 11 9 9 10 11 10 10 7 11
5 4 6 7 8 8 8 8 8 8 8 9 9 10 10 10 10 10 10 9 10 10 10 10 10 10 10 11 11 11 11 11 11 11 9 5 5 10 11 11 10 11 10
6 5 5 7 8 8 8 8 8 8 8 8 9 9 9 9 10 10 10 9 10 10 10 10 10 10 10 10 10 10 11 11 11 10 5 4 4 9 11 11 11 11 10
5 4 5 7 8 8 8 8 8 8 8 8 8 8 9 9 9 9 9 9 9 9 9 9 9 9 10 10 10 10 10 10 10 8 5 5 4 8 10 10 10 10 10
4 4 5 7 8 8 8 8 8 8 8 8 9 9 9 8 8 8 8 8 8 8 8 8 9 9 9 9 10 10 10 10 8 5 5 4 4 7 9 9 9 9 9
4 3 5 7 7 8 8 8 8 8 9 9 9 9 9 8 8 8 8 8 8 8 8 8 8 8 9 9 9 9 10 10 6 5 4 4 4 8 8 8 8 8 8
5 4 4 7 7 7 7 8 8 9 9 9 9 9 9 8 8 8 8 7 7 7 7 7 8 8 8 9 9 9 9 8 6 5 4 3 6 8 8 8 7 8 8
4 4 3 4 5 6 7 7 8 8 9 9 9 9 9 9 8 8 7 7 7 7 7 7 7 8 9 9 9 9 9 9 5 3 4 3 6 7 8 8 7 7 8
4 4 4 4 4 4 4 7 8 8 9 9 9 9 9 9 9 9 8 7 7 7 7 7 7 8 9 9 9 9 9 7 4 4 3 3 6 7 7 8 8 8 8
3 3 4 4 4 4 4 5 6 7 8 8 7 9 8 5 5 5 7 7 7 7 7 7 8 8 9 9 10 9 7 3 4 3 3 6 7 7 7 7 7 7 7
5 4 3 4 4 4 3 3 3 4 4 4 4 4 4 3 4 5 7 8 8 7 7 7 8 7 6 4 6 7 3 4 3 3 4 8 7 7 7 7 7 7 7
5 4 3 4 4 4 3 3 2 2 3 3 4 4 3 3 3 3 3 4 4 5 4 5 5 4 3 3 3 3 4 4 3 3 5 9 8 7 8 7 8 8 8
5 5 4 5 5 4 4 3 3 2 2 2 2 3 3 2 2 2 2 2 2 2 2 3 2 3 4 4 4 4 4 3 3 3 5 10 9 8 8 8 8 8 8
6 6 6 6 6 5 4 3 3 2 2 2 2 2 3 2 2 2 2 2 2 2 2 2 3 3 3 4 4 4 4 4 4 4 4 10 11 10 9 9 8 8 8
8 7 6 7 7 6 5 4 3 3 3 3 2 2 3 2 2 2 2 2 2 1 2 2 3 3 3 3 4 4 4 4 4 4 4 6 12 12 10 10 10 9 9
8 7 7 7 7 7 6 5 3 3 3 3 2 2 3 2 3 2 2 2 1 2 2 2 3 3 3 3 4 4 4 4 4 4 4 4 5 11 13 12 11 11 10
7 7 7 6 7 7 5 4 3 3 3 2 2 2 3 3 3 3 2 2 1 2 2 3 2 3 3 3 3 3 3 3 4 4 4 5 4 5 8 13 13 12 11
7 7 8 7 7 7 6 4 4 3 3 2 2 2 2 3 3 3 2 2 2 2 2 2 2 2 3 3 3 3 3 3 3 4 5 5 5 5 4 8 12 13 13
6 6 7 7 7 7 5 4 3 3 2 2 2 2 3 3 3 3 3 2 2 3 2 2 3 3 3 2 3 4 3 3 3 3 4 4 4 5 5 5 5 7 12
5 6 8 8 8 7 5 5 4 3 3 2 2 2 3 3 3 3 3 3 2 3 3 3 3 3 3 2 3 2 2 3 3 2 3 3 4 4 4 5 4 4 5
7 7 8 9 8 8 6 5 3 3 2 2 2 2 2 3 3 3 4 3 3 3 3 3 3 2 1 1 2 2 1 2 2 2 2 2 3 3 4 4 4 4 4
8 8 8 9 9 8 7 5 4 3 2 2 2 2 2 3 3 3 4 3 3 3 3 3 2 3 2 1 1 2 2 1 1 2 1 2 2 2 2 2 3 4 4
9 8 8 8 9 8 8 8 8 6 5 4 3 2 2 3 3 3 4 4 3 3 3 3 2 2 3 2 1 1 1 2 1 1 2 1 2 1 2 2 2 3 3
8 7 7 7 8 8 9 9 8 6 4 3 3 4 3 2 2 3 3 3 3 3 3 3 2 2 2 2 2 1 1 1 2 1 2 2 2 1 1 1 1 2 3
5 6 6 7 7 8 9 9 9 8 6 6 5 5 3 2 2 2 3 3 3 3 3 3 3 3 2 2 2 2 2 2 1 1 1 2 2 2 2 1 1 2 2
Wind_Direction
181 174 159 140 126 119 113 110 109 108 107 106 104 103 101 98 95 92 88 85 85 84 81 77 74 72 73 75 74 71 68 66 65 64 62 64 67 68 68 64 59 56 60
154 157 148 136 128 121 117 115 114 112 109 107 105 103 101 99 94 91 87 84 84 84 83 78 73 72 72 74 72 71 69 67 64 59 55 53 58 66 67 64 60 59 59
133 137 136 130 127 123 118 117 116 115 111 109 107 105 101 98 95 92 88 85 83 82 81 77 73 71 71 74 73 73 72 68 65 60 52 40 50 66 66 63 59 57 56
132 130 129 124 124 125 123 119 119 116 112 111 108 106 101 97 93 90 88 85 83 81 78 75 72 71 71 75 75 75 74 70 64 58 44 32 37 64 65 62 58 55 54
124 125 130 125 125 123 122 119 117 115 113 111 107 104 101 99 97 93 89 86 83 81 79 76 73 73 73 77 76 76 74 69 64 55 40 31 33 59 62 60 56 52 50
121 123 132 127 129 127 122 117 111 113 112 110 106 104 101 97 96 94 92 89 85 83 81 77 74 73 76 78 77 76 73 69 62 53 44 33 32 55 58 58 54 53 50
125 121 135 127 126 127 129 125 116 109 104 104 101 102 101 98 94 92 91 90 87 83 79 76 75 73 79 79 77 77 75 71 65 54 45 34 40 53 53 53 53 53 49
130 121 128 124 120 122 124 119 114 110 105 101 98 95 97 95 91 88 86 85 86 84 80 76 73 74 76 76 76 77 72 69 64 55 46 37 47 51 48 47 48 49 49
126 123 119 118 117 115 114 112 107 106 101 98 94 90 87 84 82 78 75 79 82 81 80 75 72 75 73 73 74 73 68 65 59 49 43 32 46 49 46 43 43 46 44
129 131 126 117 110 108 106 106 103 101 98 94 90 85 80 76 73 70 66 72 76 78 77 77 75 75 72 70 70 68 65 60 50 46 33 33 42 46 45 43 42 41 40
151 148 137 128 119 114 111 107 101 97 95 90 86 86 80 69 64 62 63 66 70 71 73 74 80 76 70 67 68 64 59 50 49 40 28 34 45 46 45 40 38 36 35
183 173 157 143 136 126 118 105 96 90 91 87 86 85 79 74 70 69 62 62 62 61 63 67 72 71 65 56 60 59 51 48 47 34 30 38 46 45 45 40 36 34 32
185 175 168 158 145 134 125 119 104 99 95 94 96 93 91 81 72 65 61 53 52 53 51 56 54 52 59 63 66 60 56 52 42 30 28 37 43 46 43 38 35 33 29
180 184 171 166 152 141 134 129 123 117 111 105 105 107 106 99 89 82 74 69 59 58 63 60 66 62 60 60 70 71 64 62 50 35 31 37 38 41 40 34 28 24 22
191 186 178 169 160 151 143 142 133 131 124 120 114 108 109 115 114 104 90 80 70 70 75 72 73 72 67 61 63 70 66 62 59 50 32 36 35 34 31 28 23 18 19
196 186 178 173 165 155 154 151 143 139 133 126 124 122 117 118 121 115 104 93 82 81 82 84 85 81 72 68 61 63 66 63 61 57 44 34 36 35 31 29 27 23 22
193 181 176 176 164 159 159 157 148 144 137 136 137 131 125 124 124 118 112 103 96 95 94 86 80 82 77 70 61 57 63 63 62 55 48 43 32 33 34 35 33 30 31
185 180 180 175 167 163 159 154 146 144 139 140 137 133 134 133 131 125 122 121 115 104 102 94 79 80 71 69 63 52 54 59 61 57 49 44 38 28 26 32 30 31 29
185 181 179 174 171 166 158 150 142 138 139 143 139 139 142 137 135 131 131 130 125 106 95 96 74 89 88 77 78 65 49 52 53 57 53 45 40 37 29 25 28 26 25
180 178 179 172 171 161 148 134 126 124 130 135 143 145 144 139 136 132 128 127 121 111 99 95 93 79 92 91 83 66 49 45 46 48 48 44 38 37 33 28 22 18 21
180 180 185 179 175 163 159 158 158 164 157 155 154 144 142 135 135 131 126 126 122 121 123 122 114 97 80 85 87 63 40 46 49 42 45 45 34 30 30 27 24 21 9
190 191 189 188 181 175 174 164 153 144 146 154 144 136 141 142 141 139 135 136 131 123 115 117 125 123 91 66 106 109 25 350 16 33 41 50 32 23 27 27 26 23 15
195 196 196 192 183 175 162 139 122 110 101 123 152 161 160 151 144 137 136 135 135 136 142 145 144 138 143 96 73 126 142 221 311 340 7 33 27 29 14 15 23 18 15
203 198 194 191 181 171 163 163 164 171 177 182 170 163 148 146 146 141 139 142 144 142 144 153 147 135 138 143 101 56 100 132 147 310 328 353 359 11 4 5 5 4 6
198 194 191 186 178 172 170 172 174 176 171 144 135 146 152 148 150 150 148 149 151 152 153 149 142 133 138 144 146 131 101 73 88 150 285 318 333 321 322 327 339 347 352
190 186 184 180 178 174 173 174 177 174 164 154 156 165 170 161 159 164 157 158 162 161 162 162 156 143 146 134 134 135 139 139 152 153 210 283 300 300 308 307 318 323 333